Simultaneous Nadir Overpasses (SNOs) Predictions

Prediction of SNOs between AQUA and NPP Satellite Orbit:

Table of predicted SNOs for the next 14.0 days since TLE Epoch: 3/18/2023
Index Date (AQUA) Time (AQUA) Lat,Lon (AQUA) SZA (AQUA ) Date (NPP) Time (NPP) Lat,Lon (NPP) SZA (NPP ) Distance(km) Time Diff (sec)
1 03/19/2023 10:49:17 79.56, -84.05 93.03 03/19/2023 10:48:34 79.57, -83.94 93.04 2.46 43
2 03/19/2023 11:38:37 -79.77, 85.15 87.30 03/19/2023 11:39:13 -79.77, 85.16 87.33 0.13 36
3 03/22/2023 01:25:02 79.46, 56.35 92.12 03/22/2023 01:24:06 79.46, 56.30 92.17 0.91 56
4 03/22/2023 02:14:19 -79.78,-133.62 88.38 03/22/2023 02:14:41 -79.79,-133.48 88.42 2.90 22
5 03/24/2023 16:00:44 79.42,-162.85 91.14 03/24/2023 15:59:36 79.41,-162.95 91.21 2.13 68
6 03/24/2023 16:50:01 -79.75, 7.18 89.37 03/24/2023 16:50:11 -79.75, 7.25 89.39 1.46 10
7 03/27/2023 07:25:40 -79.72, 148.11 90.38 03/27/2023 07:25:39 -79.73, 148.21 90.40 2.16 1
8 03/29/2023 22:01:20 -79.64, -71.38 91.30 03/29/2023 22:01:10 -79.64, -71.44 91.28 1.35 10



Historial Predications of SNOs between AQUA and NPP
